Hourly Weather Roundup
Issued by NWS Central Illinois

Home | Current Version | Previous Version | Text Only | Print | Product List | Glossary On
Versions: 1 2 3 4 5 6 7 8 9 10 11 12 13 14 15 16 17 18 19 20 21 22 23 24 25 26 27 28 29 30 31 32 33 34 35 36 37 38 39 40 41 42 43 44 45 46 47 48 49 50
823
NZUS43 KILX 011610
HWRILX

AREA WEATHER ROUNDUP
NATIONAL WEATHER SERVICE, LINCOLN IL
1100 AM CDT SUN MAY 01 2016


CITY           SKY/WX    TMP DP  RH WIND       PRES   REMARKS
BLOOMINGTON    CLOUDY    53  53 100 NE13      29.97R FOG
CHAMPAIGN      CLOUDY    57  55  93 NE7       29.95R
DANVILLE       CLOUDY    55  55  99 N5        29.93S
DECATUR        CLOUDY    58  54  86 NE7       29.96R
EFFINGHAM      PTSUNNY   66  61  84 N6        29.95S
FLORA          MOSUNNY   72  61  67 E3        29.93R
GALESBURG      CLOUDY    50  48  95 NE12      29.97R
JACKSONVILLE   CLOUDY    54  52  91 NE7       29.95S FOG
LACON          CLOUDY    51  48  90 E9        29.97S
LAWRENCEVILLE  SUNNY     72  61  68 CALM        N/A
LITCHFIELD     CLOUDY    59  55  88 NE7       29.94S
$$


CITY           SKY/WX    TMP DP  RH WIND       PRES   REMARKS
LINCOLN        CLOUDY    55  54  94 E5        29.96S FOG
MACOMB         CLOUDY    52  52  99 NE10      29.98S
MATTOON        CLOUDY    59  54  83 NE6       29.95R
MT CARMEL AP   NOT AVBL
OLNEY-NOBLE AP SUNNY     68  59  73 W3        29.94R
PARIS          CLOUDY    64  59  85 NW3       29.96R
PEORIA         CLOUDY    52  48  86 E7        29.97R FOG
PONTIAC        CLOUDY    51  51  99 NE12      29.98S FOG
RANTOUL        CLOUDY    57  55  94 NE8       29.95S FOG
ROBINSON       SUNNY     69  61  75 N6        29.94S
SPRINGFIELD    CLOUDY    56  53  90 NE6       29.96R FOG
TAYLORVILLE    CLOUDY    57  57 100 N8        29.95R
$$

...REGIONAL REPORTS...


CITY           SKY/WX    TMP DP  RH WIND       PRES   REMARKS
CHICAGO O`HARE FOG       45  44  97 NE16      30.00S VSB 1/4
KANKAKEE       CLOUDY    51  49  90 NE8       29.97S
MOLINE         CLOUDY    49  45  86 E14       29.98R FOG
MOUNT STERLING CLOUDY    52  50  93 NE6       29.95R
MOUNT VERNON   MOSUNNY   73  63  68 SW13      29.94R
PITTSFIELD     CLOUDY    54  53  99 NE3       29.96R FOG
QUINCY         CLOUDY    54  51  90 N5        29.95R
ROCKFORD       CLOUDY    48  44  86 NE14      30.03F
$$


CITY           SKY/WX    TMP DP  RH WIND       PRES   REMARKS
BURLINGTON     CLOUDY    51  49  92 NE8       29.96S
CEDAR RAPIDS   CLOUDY    46  45  96 E13       30.00R
DES MOINES     DRIZZLE   46  43  89 NE13      30.02R FOG
KIRKSVILLE     LGT RAIN  52  49  89 E8        29.97S
OTTUMWA        CLOUDY    47  46  97 NE12      29.98R
ST LOUIS       CLOUDY    63  57  81 NW8       29.95R
$$


CITY           SKY/WX    TMP DP  RH WIND       PRES   REMARKS
TERRE HAUTE    PTSUNNY   68  56  65 CALM      29.93S
EVANSVILLE     SUNNY     74  61  63 SW8       29.92S
INDIANAPOLIS   MOSUNNY   70  55  59 CALM      29.92S
LAFAYETTE      CLOUDY    59  55  87 N6        29.94R
MADISON        CLOUDY    46  40  79 NE15      30.06R
MILWAUKEE      CLOUDY    46  40  79 N15G28    30.04R
$$






USA.gov is the U.S. government's official web portal to all federal, state and local government web resources and services.